EW7665 Weather Reports


time (UTC)temp
C
wind
direction
speed
KPH
gust
KPH
rain 1hr
cm
rain 24hr
cm
rain mn
cm
humidity
%
barometer
mb
20260507180054 19 210 6.4 17.7 0.00 0.00 0.00 43 1012.4
20260507174552 18 251 6.4 12.9 0.00 0.00 0.00 43 1012.7
20260507173057 18 281 16.1 16.1 0.00 0.00 0.00 48 1013.1
20260507171554 17 218 9.7 19.3 0.00 0.00 0.00 48 1013.1
20260507170052 17 214 11.3 12.9 0.00 0.00 0.00 48 1013.3
20260507164552 17 267 8.0 16.1 0.00 0.00 0.00 50 1013.6
20260507163052 16 281 4.8 11.3 0.00 0.00 0.00 50 1013.8
20260507161550 16 265 14.5 16.1 0.00 0.00 0.00 50 1014.0
20260507160052 15 124 1.6 17.7 0.00 0.00 0.00 55 1014.0
20260507154554 15 212 12.9 12.9 0.00 0.00 0.00 55 1014.4
20260507153058 15 222 6.4 11.3 0.00 0.00 0.00 55 1014.5
20260507151551 14 242 19.3 19.3 0.00 0.00 0.00 64 1014.9
20260507150056 13 247 4.8 14.5 0.00 0.00 0.00 64 1014.9
20260507144550 13 248 4.8 8.0 0.00 0.00 0.00 64 1015.2
20260507143053 12 250 4.8 8.0 0.00 0.00 0.00 70 1015.3
20260507141556 11 259 8.0 11.3 0.00 0.00 0.00 70 1015.4
20260507140106 11 223 8.0 11.3 0.00 0.00 0.00 70 1015.6
20260507134558 10 277 12.9 12.9 0.00 0.00 0.00 77 1015.7
20260507133101 10 245 4.8 8.0 0.00 0.00 0.00 77 1015.7
20260507131551 8 232 3.2 8.0 0.00 0.00 0.00 77 1015.8
20260507130047 8 282 3.2 8.0 0.00 0.00 0.00 82 1015.8
20260507124550 8 263 4.8 6.4 0.00 0.00 0.00 82 1015.8
20260507123052 4 272 3.2 3.2 0.00 0.00 0.00 82 1015.7
20260507121549 4 257 0.0 1.6 0.00 0.00 0.00 90 1015.6
20260507120052 4 0 0.0 0.0 0.00 0.00 0.00 90 1015.8
20260507114547 4 0 0.0 0.0 0.00 0.00 0.00 89 1015.7
20260507113052 4 0 0.0 0.0 0.00 0.00 0.00 89 1015.8
20260507111550 4 0 0.0 0.0 0.00 0.00 0.00 89 1015.9
20260507110053 5 0 0.0 0.0 0.00 0.00 0.00 88 1015.8
20260507104547 5 0 0.0 0.0 0.00 0.00 0.00 88 1015.9
20260507103048 5 0 0.0 0.0 0.00 0.00 0.00 88 1016.0
20260507101603 5 0 0.0 0.0 0.00 0.00 0.00 86 1016.0
20260507100051 5 0 0.0 0.0 0.00 0.00 0.00 86 1015.9
20260507094557 5 0 0.0 0.0 0.00 0.00 0.00 86 1016.0
20260507093047 5 0 0.0 0.0 0.00 0.00 0.00 87 1016.1
20260507091603 6 0 0.0 0.0 0.00 0.00 0.00 87 1016.1
20260507090110 6 0 0.0 0.0 0.00 0.00 0.00 87 1016.1
20260507084552 5 0 0.0 0.0 0.00 0.00 0.00 86 1016.3
20260507083059 5 0 0.0 0.0 0.00 0.00 0.00 86 1016.4
20260507081557 5 0 0.0 0.0 0.00 0.00 0.00 86 1016.5
20260507080055 5 0 0.0 0.0 0.00 0.00 0.00 84 1016.7
20260507074552 5 0 0.0 0.0 0.00 0.00 0.00 84 1016.7
20260507073103 6 0 0.0 0.0 0.00 0.00 0.00 84 1016.8
20260507071549 6 0 0.0 0.0 0.00 0.00 0.00 79 1017.0
20260507070134 7 0 0.0 0.0 0.00 0.00 0.00 79 1017.1
20260507064553 7 0 0.0 0.0 0.00 0.00 0.00 79 1017.2
20260507063050 7 0 0.0 0.0 0.00 0.00 0.00 72 1017.4
20260507061549 8 0 0.0 0.0 0.00 0.00 0.00 72 1017.4
20260507060054 10 0 0.0 0.0 0.00 0.00 0.00 72 1017.5
20260507054553 10 0 0.0 0.0 0.00 0.00 0.00 65 1017.6
20260507053053 10 0 0.0 3.2 0.00 0.00 0.00 65 1017.7
20260507051553 11 267 1.6 3.2 0.00 0.00 0.00 65 1017.7
20260507050053 11 0 0.0 1.6 0.00 0.00 0.00 61 1017.8
20260507044551 11 278 3.2 3.2 0.00 0.03 0.00 61 1017.7
20260507043052 11 286 1.6 3.2 0.00 0.03 0.00 58 1017.7
20260507041546 11 259 0.0 1.6 0.00 0.03 0.00 58 1017.8
20260507040050 11 265 3.2 4.8 0.00 0.03 0.00 58 1017.9
20260507034553 11 283 0.0 1.6 0.00 0.03 0.00 57 1017.8
20260507033053 11 261 1.6 1.6 0.00 0.03 0.00 57 1017.9
20260507031554 11 262 0.0 1.6 0.00 0.03 0.00 57 1017.7
20260507030058 12 281 0.0 1.6 0.00 0.03 0.00 53 1017.8
20260507024550 12 0 0.0 1.6 0.00 0.03 0.00 53 1017.8
20260507023048 12 242 0.0 1.6 0.00 0.03 0.00 53 1017.7
20260507021613 12 0 0.0 0.0 0.00 0.03 0.00 45 1017.4
20260507014610 13 263 0.0 1.6 0.00 0.03 0.00 45 1017.2
20260507013054 13 240 1.6 1.6 0.00 0.03 0.00 38 1017.0
20260507011555 13 0 0.0 1.6 0.00 0.03 0.00 38 1016.9
20260507004554 16 0 0.0 0.0 0.00 0.03 0.00 32 1016.7
20260507003050 16 286 0.0 1.6 0.00 0.03 0.00 32 1016.8
20260507001552 15 280 0.0 3.2 0.00 0.03 0.00 32 1016.9
20260507000051 16 281 4.8 4.8 0.00 0.03 0.00 33 1016.8
20260506234548 16 0 1.6 1.6 0.00 0.03 0.00 33 1016.7
20260506233054 16 291 6.4 6.4 0.00 0.03 0.00 33 1016.8
20260506231554 16 303 3.2 6.4 0.00 0.03 0.00 30 1016.8
20260506230053 17 259 6.4 6.4 0.00 0.03 0.00 30 1017.0
20260506224556 17 281 1.6 11.3 0.00 0.03 0.00 30 1016.8
20260506223048 16 294 1.6 4.8 0.00 0.03 0.00 30 1016.8
20260506221553 16 281 1.6 4.8 0.00 0.03 0.00 30 1017.0
20260506220055 16 54 1.6 4.8 0.00 0.03 0.00 30 1017.1
20260506214554 16 287 4.8 6.4 0.00 0.03 0.00 31 1017.2
20260506213044 16 277 3.2 11.3 0.00 0.03 0.00 31 1017.3
20260506211551 15 240 3.2 6.4 0.00 0.03 0.00 31 1017.6
20260506210052 15 60 3.2 4.8 0.00 0.03 0.00 33 1017.9
20260506204553 15 30 3.2 11.3 0.00 0.03 0.00 33 1018.1
20260506203053 15 311 9.7 14.5 0.00 0.03 0.00 34 1018.3
20260506201607 15 287 1.6 4.8 0.00 0.03 0.00 34 1018.6
20260506200048 15 92 4.8 6.4 0.00 0.03 0.00 34 1018.7
20260506194552 15 300 3.2 6.4 0.00 0.03 0.00 34 1019.0
20260506193053 15 250 6.4 6.4 0.00 0.03 0.00 34 1018.9
20260506191549 14 76 3.2 3.2 0.00 0.03 0.00 34 1018.9
20260506190051 14 24 3.2 3.2 0.00 0.03 0.00 39 1018.9
20260506184554 13 91 0.0 6.4 0.00 0.03 0.00 39 1018.8
20260506183048 13 113 1.6 1.6 0.00 0.03 0.00 39 1018.9
20260506181552 13 277 9.7 9.7 0.00 0.03 0.00 45 1019.2